User: anonymous   Login
Location: Nirvana
(45.0297°N, 77.2628°W)
Time: 12:34:35
(UTC-04:00)
Language:

H-2A R/B - Orbit

View from above orbital plane
View from above orbital plane
View from above satellite
View from above satellite

Ground track
Ground track

The orbit data is extracted from the following two-line orbital elements,

1 27601U 02056E   18110.39327010  .00000013  00000-0  19547-4 0  9999
2 27601  98.3335 171.9160 0073415 103.9705 311.6151 14.31834586801773
Epoch (UTC): 20 April 2018 09:26:18
Eccentricity: 0.0073415
inclination: 98.3335°
perigee height: 733 km
apogee height: 838 km
right ascension of ascending node: 171.9160°
argument of perigee: 103.9705°
revolutions per day: 14.31834586
mean anomaly at epoch: 311.6151°
orbit number at epoch: 80177

The dashed part of the orbit path shows where the satellite is in the earth's shadow,  

DLR